This is the latest recevied weather packets stored in our database for station/object BV3BA-13. If no packets are shown the sender has not sent any weather packets the latest 10 day(s).
| Time | Temp. | Humidity | Pressure | Rain* | Wind** | Luminosity | Snow |
|---|---|---|---|---|---|---|---|
| 1777735023 | 23.89° C | 85% | 1008.1 hPa | 0 mm | - | - | - |
| 1777734424 | 23.89° C | 82% | 1008.1 hPa | 0 mm | - | - | - |
| 1777733824 | 23.89° C | 85% | 1008.1 hPa | 0 mm | - | - | - |
| 1777733224 | 24.44° C | 84% | 1008.2 hPa | 0 mm | - | - | - |
| 1777732624 | 24.44° C | 85% | 1008.2 hPa | 0 mm | - | - | - |
| 1777732024 | 24.44° C | 84% | 1008.2 hPa | 0 mm | - | - | - |
| 1777731425 | 24.44° C | 85% | 1008.2 hPa | 0 mm | - | - | - |
| 1777730824 | 24.44° C | 85% | 1008.1 hPa | 0 mm | - | - | - |
| 1777730225 | 24.44° C | 83% | 1008 hPa | 0 mm | - | - | - |
| 1777729624 | 24.44° C | 84% | 1008 hPa | 0 mm | - | - | - |
| 1777729023 | 24.44° C | 82% | 1008 hPa | 0 mm | - | - | - |
| 1777728424 | 24.44° C | 81% | 1008 hPa | 0 mm | - | - | - |
| 1777727823 | 25° C | 75% | 1007.9 hPa | 0 mm | - | - | - |
| 1777727223 | 25° C | 76% | 1007.9 hPa | 0 mm | - | - | - |
| 1777726623 | 25° C | 75% | 1007.7 hPa | 0 mm | - | - | - |
| 1777725423 | 25° C | 73% | 1007.7 hPa | 0 mm | - | - | - |
| 1777724824 | 25° C | 74% | 1007.7 hPa | 0 mm | - | - | - |
| 1777724223 | 25° C | 74% | 1007.6 hPa | 0 mm | - | - | - |
| 1777723624 | 25° C | 74% | 1007.6 hPa | 0 mm | - | - | - |
| 1777721824 | 25.56° C | 73% | 1007.2 hPa | 0 mm | - | - | - |
| 1777721224 | 25.56° C | 72% | 1007 hPa | 0 mm | - | - | - |
| 1777720624 | 25.56° C | 71% | 1006.8 hPa | 0 mm | - | - | - |
| 1777720024 | 25° C | 73% | 1006.7 hPa | 0 mm | - | - | - |
| 1777719424 | 25.56° C | 72% | 1006.7 hPa | 0 mm | - | - | - |
| 1777718824 | 25.56° C | 72% | 1006.7 hPa | 0 mm | - | - | - |
* Rain latest hour (hover to see other rain measurements)
** Current wind speed in m/s (hover to see current wind gust speed)